{"data":{"norad_id":49008,"intl_designator":"2021-062A","name":"FENGYUN 3E","alt_names":[],"object_type":"PAYLOAD","status":"ACTIVE","operator":null,"country":"PRC","launch_date":"2021-07-04","launch_site_code":"JSC","launch_vehicle":null,"mission":null,"orbit_class":"UNKNOWN","rcs_meters":null,"size_class":null,"mass_kg":null,"dimensions":null,"purposes":["earth_obs"],"wikipedia_slug":null,"has_3d_model":false,"image_url":null,"decayed_at":null,"tle_current":{"epoch":"2026-09-20T04:34:52.275648Z","epoch_age_seconds":41087,"freshness":"FRESH","line1":"1 49008U 21062A   26263.19088282  .00000175  00000+0  10327-3 0  9997","line2":"2 49008  98.7557 265.5624 0001949 138.5365 221.5959 14.19912034270060","mean_motion":14.19912034,"eccentricity":0.0001949,"inclination_deg":98.7557,"raan_deg":265.5624,"arg_perigee_deg":138.5365,"mean_anomaly_deg":221.5959,"bstar":0.00010327,"rev_number":27006,"period_min":101.41473313269,"perigee_km":824.24628309017,"apogee_km":827.05431938019,"semimajor_km":7203.7873012352,"source":"CELESTRAK","updated_at":"2026-09-20T09:00:33.221344Z"}}}